This demonstration page uses our WeatherBlox Daily Observations layout. Learn more.

Left ArrowRight Arrow

36.17497, -115.13722

Hourly Observations for August 3, 2019

Temp ( °F °C ) Dew Point ( °F °C ) Humidity (%) Winds ( mph kmh ) Pressure ( in mb ) Visibility ( mi km ) Precip ( " mm )
12:53 am 00:53 Clear 93 33.9 38 3.3 14 14 NNW 3 6 29.85 1011 10 16 0.00 0.00
1:53 am 01:53 Clear 91 32.8 38 3.3 15 15 NNW 8 13 29.85 1011 10 16 0.00 0.00
2:53 am 02:53 Clear 90 32.2 39 3.9 17 17 NW 7 11 29.84 1011 10 16 0.00 0.00
3:53 am 03:53 Clear 88 31.1 41 5 19 19 Calm 29.85 1011 10 16 0.00 0.00
4:53 am 04:53 Clear 85 29.4 43 6.1 23 23 NW 3 6 29.86 1011 10 16 0.00 0.00
5:53 am 05:53 Sunny 85 29.4 39 3.9 20 20 NW 6 9 29.87 1011 10 16 0.00 0.00
6:53 am 06:53 Sunny 87 30.6 41 5 20 20 NNW 5 7 29.88 1012 10 16 0.00 0.00
7:53 am 07:53 Sunny 88 31.1 44 6.7 22 22 Calm 29.90 1013 10 16 0.00 0.00
8:53 am 08:53 Sunny 93 33.9 43 6.1 18 18 Calm 29.89 1012 10 16 0.00 0.00
9:53 am 09:53 Sunny 96 35.6 47 8.3 19 19 E 6 9 29.90 1012 10 16 0.00 0.00
10:53 am 10:53 Sunny 98 36.7 43 6.1 15 15 SE 6 9 29.89 1012 10 16 0.00 0.00
11:53 am 11:53 Sunny 101 38.3 39 3.9 12 12 SE 9 15 29.87 1012 10 16 0.00 0.00
12:53 pm 12:53 Sunny 104 40 39 3.9 11 11 SSE 9 15 29.85 1011 10 16 0.00 0.00
1:53 pm 13:53 Sunny 106 41.1 41 5 11 11 ESE 12 19 29.82 1010 10 16 0.00 0.00
2:53 pm 14:53 Sunny 107 41.7 42 5.6 11 11 undefined N/A 29.79 1009 10 16 0.00 0.00
3:53 pm 15:53 Sunny 108 42.2 42 5.6 11 11 SSE 14 22 29.76 1008 10 16 0.00 0.00
4:53 pm 16:53 Sunny 108 42.2 43 6.1 11 11 E 9 15 29.74 1007 10 16 0.00 0.00
5:43 pm 17:43 Sunny 108 42.2 40 4.4 10 10 WSW 12 19 29.55 1001 10 16 0.00 0.00
5:53 pm 17:53 Sunny 108 42.2 40 4.4 10 10 WSW 14 22 29.73 1007 10 16 0.00 0.00
6:53 pm 18:53 Sunny 106 41.1 39 3.9 10 10 W 14 22 29.74 1007 10 16 0.00 0.00
7:53 pm 19:53 Clear 103 39.4 39 3.9 11 11 W 8 13 29.75 1008 10 16 0.00 0.00
8:53 pm 20:53 Clear 101 38.3 39 3.9 12 12 W 7 11 29.78 1008 10 16 0.00 0.00
9:53 pm 21:53 Clear with Nearby Thunderstorms 99 37.2 39 3.9 12 12 SSW 6 9 29.80 1009 10 16 0.00 0.00
10:03 pm 22:03 Clear with Thunderstorms 99 37.2 39 3.9 12 12 SSW 7 11 29.66 1004 10 16 0.00 0.00
10:31 pm 22:31 Clear 98 36.7 38 3.3 12 12 WNW 6 9 29.66 1004 10 16 0.00 0.00
10:53 pm 22:53 Clear 98 36.7 38 3.3 12 12 WSW 6 9 29.80 1009 10 16 0.00 0.00
11:53 pm 23:53 Clear 96 35.6 39 3.9 14 14 Calm 29.80 1009 10 16 0.00 0.00

Powered by AerisWeather